Tracking 19575 objects as of 18-Feb-2019
HD Live streaming from Space Station
objects crossing your sky now

LEMUR 2 MIA-GRACE

Track LEMUR 2 MIA-GRACE now!
10-day predictions
LEMUR 2 MIA-GRACE is classified as:


NORAD ID: 41992
Int'l Code: 2017-008AW
Perigee: 493.9 km
Apogee: 503.3 km
Inclination: 97.4 °
Period: 94.4 minutes
Semi major axis: 6869 km
RCS: Unknown
Launch date: February 15, 2017
Source: United States (US)
Launch site: SRIHARIKOTA (SRI)
aabbcc
Your satellite tracking list
Your tracking list is empty




NASA's NSSDC Master Catalog

Two Line Element Set (TLE):
1 41992U 17008AW  19049.17178368  .00001356  00000-0  57581-4 0  9990
2 41992  97.4193 116.9811 0006855 200.1059 159.9910 15.24774182110892
Source of the keplerian elements: AFSPC